Location: Key Biscayne
(25.6930°N, 80.1630°W)
Time: 01:15:12
(UTC-04:00)

CZ-2D R/B - Visible Passes

Search period start: 30 April 2016 00:00
Search period end: 10 May 2016 00:00
Orbit: 526 x 543 km, 97.5° (Epoch: 28 April)

Date Brightness Start Highest point End Pass type
(mag) Time Alt. Az. Time Alt. Az. Time Alt. Az.
30 Apr 3.6 21:14:39 19° S 21:17:17 64° WSW 21:21:06 10° NNW visible
01 May 3.2 21:05:32 18° SSE 21:08:20 89° WSW 21:12:10 10° NNW visible
02 May 3.2 20:56:25 16° SSE 20:59:22 67° ENE 21:03:11 10° N visible
03 May 3.5 20:47:17 14° SSE 20:50:25 48° ENE 20:54:07 10° N visible
04 May 3.9 20:38:09 11° SE 20:41:28 35° ENE 20:44:59 10° N visible
05 May 4.3 20:29:18 10° SE 20:32:32 26° ENE 20:35:47 10° NNE visible
05 May 6.1 22:05:16 10° WSW 22:06:54 12° W 22:08:33 10° WNW visible
06 May 4.7 20:20:45 10° ESE 20:23:36 20° ENE 20:26:28 10° NNE visible
06 May 5.9 21:55:24 10° SW 21:57:52 17° W 22:00:22 10° NW visible
07 May 5.5 21:46:10 12° SW 21:48:51 22° W 21:51:53 10° NW visible
08 May 5.0 21:37:01 13° SSW 21:39:50 29° W 21:43:13 10° NW visible
09 May 4.5 21:27:53 14° SSW 21:30:50 39° W 21:34:28 10° NNW visible
